Weather History for Albany, NY

Change the Weather History Date:

Wednesday, December 12, 2012

  Actual Average Record
Temperature  
Mean Temperature 30 °F 30 °F  
Max Temperature 41 °F 37 °F 62 °F (1979)
Min Temperature 19 °F 23 °F -12 °F (1988)
Degree Days  
Heating Degree Days 35 35  
Month to date heating degree days 339 397  
Since 1 July heating degree days 1627 1801  
Cooling Degree Days 0 0  
Month to date cooling degree days 0 0  
Year to date cooling degree days 814 598  
Moisture  
Dew Point 22 °F    
Average Humidity 73    
Maximum Humidity 92    
Minimum Humidity 54    
Precipitation  
Precipitation 0.00 in 0.10 in 1.48 in (1967)
Month to date precipitation 1.16 1.25  
Year to date precipitation 34.10 37.67  
Snow  
Snow 0.00 in 0.40 in 6.60 in (1970)
Month to date snowfall 0.7 4.3  
Since 1 July snowfall 0.8 7.1  
Snow Depth 0.00 in    
Sea Level Pressure  
Sea Level Pressure 30.36 in    
Wind  
Wind Speed 1 mph (South)    
Max Wind Speed 7 mph    
Max Gust Speed 10 mph    
Visibility 10 miles    
Events      
T = Trace of Precipitation, MM = Missing Value Source: NWS Daily Summary

Daily Weather History Graph

Daily Weather History Graph

Search for Another Location

Airport:

Trip Planner

Search our weather history database for the weather conditions in past years. The results will help you decide how hot, cold, wet, or windy it might be!

Date:

Astronomy

Dec. 12, 2012 Rise Set
Actual Time 7:16 AM EST 4:21 PM EST
Civil Twilight 6:44 AM EST 4:53 PM EST
Nautical Twilight 6:09 AM EST 5:29 PM EST
Astronomical Twilight 5:34 AM EST 6:03 PM EST
Moon 6:17 AM EST (12/12) 3:56 PM EST (12/12)
Length of Visible Light 10h 09m
Length of Day
9h 04m
Waning Crescent, 1% of the Moon is Illuminated
Dec 12
Waning Crescent
Dec 13
New
Dec 20
First Quarter
Dec 28
Full
Jan 4
Last Quarter

Hourly Weather History & Observations

Time (EST) Temp. Windchill Dew Point Humidity Pressure Visibility Wind Dir Wind Speed Gust Speed Precip Events Conditions
12:51 AM 24.1 °F - 19.9 °F 84% 30.24 in 10.0 mi Calm Calm - N/A   Partly Cloudy
1:51 AM 23.0 °F - 19.9 °F 88% 30.25 in 10.0 mi Calm Calm - N/A   Scattered Clouds
2:51 AM 23.0 °F - 19.0 °F 85% 30.27 in 10.0 mi Calm Calm - N/A   Scattered Clouds
3:51 AM 19.9 °F - 18.0 °F 92% 30.27 in 10.0 mi Calm Calm - N/A   Scattered Clouds
4:51 AM 19.0 °F 12.3 °F 17.1 °F 92% 30.30 in 10.0 mi South 4.6 mph - N/A   Partly Cloudy
5:51 AM 19.9 °F 13.4 °F 18.0 °F 92% 30.32 in 10.0 mi SSW 4.6 mph - N/A   Partly Cloudy
6:51 AM 19.9 °F - 17.1 °F 89% 30.35 in 10.0 mi Calm Calm - N/A   Mostly Cloudy
7:51 AM 23.0 °F - 19.0 °F 85% 30.35 in 10.0 mi Calm Calm - N/A   Scattered Clouds
8:51 AM 27.0 °F 23.0 °F 24.1 °F 89% 30.37 in 10.0 mi South 3.5 mph - N/A   Mostly Cloudy
9:51 AM 30.9 °F 25.2 °F 26.1 °F 82% 30.38 in 10.0 mi SSE 5.8 mph - N/A   Scattered Clouds
10:51 AM 34.0 °F 29.8 °F 26.1 °F 73% 30.38 in 10.0 mi South 4.6 mph - N/A   Partly Cloudy
11:51 AM 37.0 °F - 25.0 °F 62% 30.36 in 10.0 mi Calm Calm - N/A   Scattered Clouds
12:51 PM 39.9 °F 37.8 °F 25.0 °F 55% 30.35 in 10.0 mi Variable 3.5 mph - N/A   Scattered Clouds
1:51 PM 37.9 °F - 25.0 °F 60% 30.35 in 10.0 mi Calm Calm - N/A   Scattered Clouds
2:51 PM 39.0 °F - 25.0 °F 57% 30.38 in 10.0 mi Calm Calm - N/A   Mostly Cloudy
3:51 PM 37.9 °F - 25.0 °F 60% 30.39 in 10.0 mi Calm Calm - N/A   Scattered Clouds
4:51 PM 32.0 °F - 25.0 °F 75% 30.40 in 10.0 mi Calm Calm - N/A   Scattered Clouds
5:51 PM 30.0 °F - 24.1 °F 79% 30.40 in 10.0 mi Calm Calm - N/A   Partly Cloudy
6:51 PM 27.0 °F - 23.0 °F 85% 30.42 in 10.0 mi Calm Calm - N/A   Partly Cloudy
7:51 PM 26.1 °F - 23.0 °F 88% 30.42 in 9.0 mi Calm Calm - N/A   Partly Cloudy
8:51 PM 24.8 °F 19.1 °F 21.2 °F 86% 30.41 in 9.0 mi SSW 4.6 mph - N/A   Partly Cloudy
9:51 PM 26.1 °F - 23.0 °F 88% 30.42 in 9.0 mi Calm Calm - N/A   Partly Cloudy
10:51 PM 26.6 °F - 24.8 °F 93% 30.42 in 10.0 mi Calm Calm - N/A   Mostly Cloudy
11:51 PM 28.9 °F 25.2 °F 26.1 °F 89% 30.44 in 10.0 mi SSW 3.5 mph - N/A   Overcast